Regional Weather Roundup
Issued by NWS

Home | Current Version | Previous Version | Graphics & Text | Print | Product List | Glossary On
Versions: 1 2 3 4 5 6 7 8 9 10 11 12 13 14 15 16 17 18 19 20 21 22 23 24 25 26 27 28 29 30 31 32 33 34 35 36 37 38 39 40 41 42 43 44 45 46 47 48 49 50
000
ASUS43 KLMK 190502
RWRKY
KENTUCKY REGIONAL WEATHER ROUNDUP
NATIONAL WEATHER SERVICE LOUISVILLE KY
100 AM EDT TUE SEP 19 2017

NOTE "FAIR" INDICATES FEW OR NO CLOUDS BELOW 12,000 FEET
WITH NO SIGNIFICANT WEATHER AND/OR OBSTRUCTIONS TO VISIBILITY.

KYZ001>023-026-027-061>063-070>075-190600-
WESTERN AND SOUTH CENTRAL KENTUCKY

CITY           SKY/WX    TMP DP  RH WIND       PRES   REMARKS
PADUCAH        CLOUDY    73  69  87 SE5       29.94F
HENDERSON      CLOUDY    68  67  96 S5        29.96F
OWENSBORO      CLOUDY    68  66  93 S6        29.97F
HOPKINSVILLE   PTCLDY    70  68  94 SE5       29.97F
BOWLING GREEN  PTCLDY    68  68 100 CALM      29.99F FOG
GLASGOW        NOT AVBL
$$

KYZ024-025-028>034-038-045-046-053-190600-
NORTH CENTRAL KENTUCKY

CITY           SKY/WX    TMP DP  RH WIND       PRES   REMARKS
LOUISVILLE/SDF CLOUDY    75  70  84 CALM      29.98S
LOUISVILLE/LOU PTCLDY    72  71  97 CALM      29.98F
FORT KNOX      CLOUDY    67  67 100 CALM      29.98S
$$

KYZ035>037-039>044-047>052-055>060-089>105-190600-
NORTHEAST KENTUCKY

CITY           SKY/WX    TMP DP  RH WIND       PRES   REMARKS
LEXINGTON      CLOUDY    72  66  81 SE5       30.01F
COVINGTON      MOCLDY    70  67  90 S5        30.00F
FRANKFORT      MOCLDY    74  65  73 S7        29.99S
$$

KYZ054-064>069-076>088-106>120-190600-
SOUTHEAST KENTUCKY

CITY           SKY/WX    TMP DP  RH WIND       PRES   REMARKS
JACKSON        CLEAR     67  60  78 CALM      30.05F
LONDON         PTCLDY    65  64  97 CALM      30.04S FOG
SOMERSET       NOT AVBL
MIDDLESBORO    CLEAR     64  64 100 CALM      30.07S
MONTICELLO     CLOUDY    65  64  97 W3        30.04F
$$





USA.gov is the U.S. government's official web portal to all federal, state and local government web resources and services.